{"data":{"norad_id":67342,"intl_designator":"2026-003J","name":"STARLINK-36432","alt_names":[],"object_type":"PAYLOAD","status":"ACTIVE","operator":null,"country":"US","launch_date":"2026-01-09","launch_site_code":"AFETR","launch_vehicle":null,"mission":null,"orbit_class":"UNKNOWN","rcs_meters":null,"size_class":null,"mass_kg":null,"dimensions":null,"purposes":["comms"],"wikipedia_slug":null,"has_3d_model":false,"image_url":null,"decayed_at":null,"tle_current":{"epoch":"2026-09-19T22:12:09.883296Z","epoch_age_seconds":124990,"freshness":"FRESH","line1":"1 67342U 26003J   26262.92511439  .00016314  00000+0  60084-3 0  9990","line2":"2 67342  43.0008 209.7864 0001446 260.4883  99.5806 15.27592340 38535","mean_motion":15.2759234,"eccentricity":0.0001446,"inclination_deg":43.0008,"raan_deg":209.7864,"arg_perigee_deg":260.4883,"mean_anomaly_deg":99.5806,"bstar":0.00060084,"rev_number":3853,"period_min":94.265987220124,"perigee_km":482.02002372261,"apogee_km":484.0042680556,"semimajor_km":6861.1491458891,"source":"CELESTRAK","updated_at":"2026-09-20T09:00:43.512526Z"}}}